Location: Red n Blue Observatory
(38.4831°N, 87.0953°W)
Time: 13:16:46
(UTC-04:00)

BlueWalker 3 - Visible Passes

Search period start: 08 September 2024 00:00
Search period end: 18 September 2024 00:00
Orbit: 476 x 487 km, 53.2° (Epoch: 07 September)

Date Brightness Start Highest point End Pass type
(mag) Time Alt. Az. Time Alt. Az. Time Alt. Az.
08 Sep 4.0 21:28:53 10° NNW 21:31:19 16° NNE 21:32:29 14° NE visible
08 Sep 5.0 23:06:06 10° NW 23:06:43 14° NW 23:06:43 14° NW visible
09 Sep 4.1 21:01:34 10° NNW 21:03:52 15° NNE 21:06:04 10° ENE visible
09 Sep 4.1 22:38:42 10° NW 22:40:18 24° NW 22:40:18 24° NW visible
10 Sep 4.1 20:34:13 10° NNW 20:36:23 14° NNE 20:38:31 10° ENE visible
10 Sep 3.0 22:11:17 10° NW 22:13:54 41° NNW 22:13:54 41° NNW visible
11 Sep 2.0 21:43:50 10° NW 21:47:32 58° NE 21:47:32 58° NE visible
12 Sep 2.2 21:16:20 10° NW 21:20:01 51° NE 21:21:12 35° E visible
12 Sep 5.1 22:55:14 10° W 22:55:27 11° W 22:55:27 11° W visible
13 Sep 2.3 20:48:50 10° NW 20:52:27 46° NE 20:54:55 18° ESE visible
13 Sep 4.4 22:27:29 10° W 22:29:10 17° WSW 22:29:10 17° WSW visible
14 Sep 2.5 20:21:17 10° NW 20:24:51 41° NE 20:28:25 10° ESE visible
14 Sep 3.8 21:59:45 10° WNW 22:02:40 22° SW 22:02:58 22° SW visible
15 Sep 3.8 21:32:00 10° WNW 21:35:05 24° SW 21:36:50 17° S visible
16 Sep 3.7 21:04:14 10° WNW 21:07:28 28° SW 21:10:41 10° S visible
17 Sep 3.5 20:36:26 10° WNW 20:39:47 31° SW 20:43:07 10° SSE visible
